Regional Weather Roundup
Issued by NWS

Home | Current Version | Previous Version | Graphics & Text | Print | Product List | Glossary On
Versions: 1 2 3 4 5 6 7 8 9 10 11 12 13 14 15 16 17 18 19 20 21 22 23 24 25 26 27 28 29 30 31 32 33 34 35 36 37 38 39 40 41 42 43 44 45 46 47 48 49 50
443
ASUS44 KJAN 201610
RWRMS

MISSISSIPPI HOURLY WEATHER ROUNDUP
NATIONAL WEATHER SERVICE JACKSON MS
1100 AM CDT MON APR 20 2015

NOTE: "FAIR: INDICATES FEW OR NO CLOUDS BELOW 12,000 FEET WITH NO
SIGNIFICANT WEATHER AND/OR OBSTRUCTIONS TO VISIBILITY.

MSZ001>002-007>008-010>013-018>021-025>028-034>036-201700-
NORTHWEST MISSISSIPPI

CITY           SKY/WX    TMP DP  RH WIND       PRES   REMARKS
CLARKSDALE     FAIR      61  48  63 W16       29.88R
CLEVELAND      PTSUNNY   62  51  66 NW13G18   29.89R
GREENWOOD      CLOUDY    60  49  66 NW9       29.88R
GREENVILLE     SUNNY     62  47  57 NW17      29.89R
OLIVE BRANCH   PTSUNNY   57  46  67 NW12G20   29.83R
OXFORD         PTSUNNY   57  48  72 W13       29.86R
TUNICA         SUNNY     61  46  59 NW15G21   29.86R
$$

MSZ003>006-009-014>017-022>024-029>033-037>039-201700-
NORTHEAST MISSISSIPPI

CITY           SKY/WX    TMP DP  RH WIND       PRES   REMARKS
COLUMBUS AFB   CLOUDY    63  52  67 W13       29.84R
CORINTH        CLOUDY    61  50  67 W13       29.79R
GOLDN TRIANGLE PTSUNNY   64  54  68 NW8       29.84R
STARKVILLE     CLOUDY    61  52  72 W9        29.86R
TUPELO         CLOUDY    60  50  69 NW7G18    29.82R
$$

MSZ040-058-201700-
CENTRAL MISSISSIPPI

CITY           SKY/WX    TMP DP  RH WIND       PRES   REMARKS
JACKSON INTL   PTSUNNY   65  51  60 NW9G20    29.89R
JACKSON HAWKNS CLOUDY    63  50  62 NW14G22   29.90R
MERIDIAN KEY   MOSUNNY   70  51  51 VRB6      29.85R
MERIDIAN NAS   MOSUNNY   71  52  50 W10       29.85R
RAYMOND        PTSUNNY   64  59  82 NW12      29.90R
VICKSBURG      MOSUNNY   64  49  57 NW12G21   29.92R
$$

MSZ059>079-201700-
SOUTH MISSISSIPPI

CITY           SKY/WX    TMP DP  RH WIND       PRES   REMARKS
BROOKHAVEN     FAIR      66  57  72 CALM      29.92R
HATTIESBURG    PTSUNNY   73  59  61 NW9       29.88R
MCCOMB         PTSUNNY   68  55  63 W9        29.91R
NATCHEZ        PTSUNNY   63  50  63 NW12G20   29.93R
PINE BELT      PTSUNNY   72  55  56 NW8       29.89R
$$

MSZ080>082-201700-
COASTAL MISSISSIPPI

CITY           SKY/WX    TMP DP  RH WIND       PRES   REMARKS
BAY ST LOUIS   SUNNY     75  52  43 MISG      29.87S
BILOXI         CLOUDY    77  62  60 VRB3      29.86S
PASCAGOULA     CLOUDY    75  62  64 CALM      29.86R
GULFPORT       PTSUNNY   75  60  59 W8        29.86S
$$



USA.gov is the U.S. government's official web portal to all federal, state and local government web resources and services.